Voltar ao catálogo

STARLINK-35488

AtivoComunicaçõesVLEO
NORAD 66254·PAYLOAD·🇺🇸 United States

Lançado Oct 29, 2025 de Cape Canaveral Space Force Station

Loading…

Próximas Passagens (próximas 24 horas)

TLE

AtualizadoSource: CelesTrak SupGP

Época: Sep 14, 2026, 21:18 UTC

1 66254C 25245W   26257.88798611 -.00072509  00000+0 -23317-2 0  2570
2 66254  53.1569 123.9089 0001267  87.7060 149.2719 15.31737625    14

Acompanhe STARLINK-35488 em tempo real com AllMySat

Download on the App Store